Find Starlink 32414

NORAD ID: 61667 Int'l Des: 2024-193 Owner: SPXS Country: US Constellation: starlink operational
LEOCIRCULAR

实时位置

正在加载3D地球...

关于 Starlink 32414

正在加载描述...

即将过境

Passes for default location (London). Set your location on the main map for personalized predictions.

高度历史

Loading altitude history...

两行轨道根数

1 61667U 24193G 26123.48784142 .00003069 00000-0 11578-3 0 9990
2 61667 53.1586 196.6735 0001215 67.2620 292.8509 15.30181787 84913
Epoch: May 3, 2026 • Age: 22 hours

当前状态

高度 491.7 km
速度 7.62 km/s
星下点 -46.56°S, 137.73°E
发射日期 Oct 26, 2024
运行时间 1.5 years
类型 internet

技术详情

分类 Payload
质量 730.00 kg
干质量 700.00 kg
总质量 730.00 kg
长度 0.30 m
直径 4.10 m
跨度 29.00 m
形状 Box + pan
制造商 SPXS
平台类型 Starlink V2M
阶段状态 In Orbit
所有者/国家 SPXS/US

Most Searched